sat.trackr.live / text

‹ back to catalog

STARLINK-11128 [DTC]

NORAD 60302 · 2024-133B

PAYLOAD ACTIVE UNKNOWN

§ Identity

Operator
Country
US
Launch date
2024-07-28
Launch site
AFWTR
Launch vehicle
Mass (kg)
RCS (m²)

Purposes: comms

External: N2YO · Heavens-Above · Gunter

§ Orbital elements

Epoch: 2026-05-25T05:32:56.907744Z

Period
91.74 min
Inclination
53.1589°
Eccentricity
0.0001215
Mean motion
15.69697622 rev/d
Perigee alt
358.9 km
Apogee alt
360.6 km
Semi-major
6,737.9 km
B*
-7.7401e-6
RAAN
129.0644°
Arg perigee
74.6459°
Mean anomaly
285.4693°
Rev number
10,575

§ Raw data

STARLINK-11128 [DTC]1 60302U 24133B   26145.23121421 -.00001526  00000+0 -77401-5 0  99972 60302  53.1589 129.0644 0001215  74.6459 285.4693 15.69697622105752

JSON: /api/v1/satellites/60302 · /tle

For live sub-satellite position, see the globe view (requires WebGL).

§ Visibility from observer

Set your observer location to see the next 7 days of passes ≥ 10°. The values pass through the URL so the page stays shareable.

No JS? Fill the form by hand. The geolocation button needs JavaScript.